Vertical_Velocity
10 10 14 0 5 3 5 4 1 3 5 -0 -2 -3 3 -2 1 -2 -1 2 -4 2 -0 -2 -1 -4 -3 3 2 1 0 -0 -6 -10 4 1 -7 -2 2 7 -5 0 5 -20
-4 19 22 6 -1 5 10 -1 5 -1 2 -6 -5 2 3 -2 0 0 -1 2 -5 3 -1 -3 -1 1 1 1 1 1 -1 -0 -4 -14 2 4 3 4 4 4 6 -4 6 -22
-4 45 1 32 -8 17 10 6 2 1 -3 1 -2 2 1 -2 -1 -2 -0 -0 -3 4 1 3 -6 -3 -1 -1 2 4 4 0 -1 1 -4 8 -8 0 14 5 4 -7 1 -16
1 10 60 18 1 23 5 -1 -9 -2 -13 -13 -4 7 -2 0 -3 -0 -1 -3 -2 3 -0 -2 -4 2 -2 3 0 2 4 -5 6 1 0 4 -2 -2 6 0 3 0 -14 1
3 -0 114 24 20 31 3 -4 -3 -2 1 -2 1 8 -7 1 -1 -1 -3 -3 2 2 -1 3 -1 3 6 0 -0 2 3 -6 -2 -15 4 1 -10 8 1 -4 2 -6 13 -0
-1 7 26 52 33 16 -9 12 5 3 6 2 1 -6 9 5 -4 -1 -3 2 -0 -2 3 1 1 2 1 2 1 2 3 0 1 -11 0 -4 -3 1 3 -1 9 2 4 5
18 -12 5 26 23 -7 7 19 5 1 -9 0 -4 -4 6 -1 -1 2 -3 -0 1 -2 4 3 0 2 0 -1 3 2 1 3 1 -9 -4 -5 -2 2 1 -7 8 -0 4 4
4 -7 2 30 19 8 7 8 1 3 0 6 4 -1 3 2 -4 -2 -1 -2 3 -5 3 1 -1 -1 -1 -2 -1 1 2 2 -1 -1 1 -12 -2 -4 -1 -2 1 -4 2 4
8 12 7 2 0 29 6 5 9 1 4 -9 9 3 2 1 0 -0 -0 -3 2 -3 1 4 -1 -1 -1 -1 -0 1 0 1 -0 1 1 -0 -0 -0 1 -0 -0 -1 -1 3
3 -12 -5 -12 6 23 -7 -1 6 9 0 0 -0 -1 -2 3 1 -2 1 -3 3 -2 -0 5 -1 -1 -1 -2 -0 -1 0 1 -2 2 -3 -9 0 -0 1 -1 1 2 -1 -0
9 3 -3 -10 -8 1 4 6 7 4 -0 -0 2 0 -1 -1 -2 0 1 1 -1 -2 -1 4 -1 -1 -1 -2 -1 0 0 -1 -0 1 0 -6 -2 2 -1 1 2 5 2 2
3 11 -11 19 32 21 16 5 9 5 1 2 2 -0 -2 2 -1 1 1 -1 -0 -5 0 4 1 -2 -1 -1 -3 -0 -1 1 -1 -4 -4 5 0 -3 -1 -0 -1 -1 -0 -1
24 -10 -27 57 5 11 5 7 6 4 1 9 -0 0 -2 1 -0 1 -1 2 0 -1 -1 3 2 -1 -1 -2 -2 -2 -3 0 -2 -0 -2 2 3 2 2 -1 -2 -1 3 1
-3 -2 25 -11 10 10 10 6 13 8 4 -2 1 1 -6 -2 1 1 0 3 4 -2 -1 1 2 2 -1 -2 -2 -5 7 1 1 -1 0 -1 -2 -0 -2 0 -1 -2 -0 -1
-1 -1 10 10 39 11 21 -2 -3 4 3 1 -1 3 -3 -0 -1 0 1 2 3 -2 -0 -3 3 1 1 -0 -5 -1 1 1 -0 -2 -1 -1 -1 -2 -1 2 1 -0 -0 -1
-1 1 15 9 7 38 2 32 2 5 4 4 2 2 -2 -2 1 2 1 3 1 -2 1 -1 -2 2 2 -1 -5 3 1 -1 -1 1 1 -1 0 -0 -1 -1 1 1 0 0
1 -1 -8 -0 14 6 -5 -8 -9 3 4 2 2 -0 0 -0 -0 1 2 3 1 1 1 -5 -0 4 2 -4 -14 11 2 -0 -0 1 1 1 0 -0 -1 -1 -1 1 -1 -2
10 -12 5 18 18 36 18 11 -1 2 -0 2 -4 0 -3 -0 1 1 0 1 4 1 0 -3 0 4 2 -18 7 1 0 -1 -1 -1 0 1 1 1 -1 -2 -1 -1 -1 -0
-3 7 -5 9 30 6 1 20 6 0 -6 1 -4 -7 -5 3 -1 0 1 6 1 -3 -3 1 1 1 -10 -1 3 -2 1 3 -1 0 1 1 1 1 2 -0 -0 -1 -1 -1
-12 -7 9 8 8 12 21 27 -2 11 13 1 -4 -2 -3 -2 3 4 8 0 -1 2 -0 2 -1 -16 8 -6 -5 -1 4 3 -2 -2 4 -1 2 2 2 -0 -3 -1 -1 -1
-0 9 14 14 16 15 29 7 0 2 2 -5 -2 1 5 4 3 3 3 1 2 -0 -1 1 0 -10 -1 -6 -2 -0 0 0 1 -1 1 1 1 2 -2 2 -0 -0 1 2
1 16 17 6 21 11 6 0 -3 -2 -7 -3 -2 1 -0 -1 -1 1 -0 1 0 2 2 -1 -3 -6 -1 -5 -2 -2 -0 0 -1 1 -0 2 2 1 0 1 2 2 -1 1
4 32 16 15 7 7 -1 -8 -3 -5 -5 -14 -8 -6 -0 3 4 -5 -0 1 0 -0 1 -3 -3 -1 1 -2 2 -1 2 0 -0 1 -1 1 2 2 2 2 2 2 1 1
13 6 5 10 0 2 -2 4 1 -6 -11 -3 3 4 -2 2 1 1 1 1 -1 -0 -2 -1 -2 1 1 1 2 3 3 1 1 1 1 1 1 0 1 1 1 0 1 1
-3 -1 1 -1 3 7 2 -3 -2 -1 -3 -4 -2 2 5 3 1 3 -1 -0 -1 -1 1 2 2 1 0 1 2 3 3 -0 -2 -4 0 2 2 1 1 1 0 1 2 1
2 6 2 6 3 -6 -5 6 5 2 0 4 -3 5 4 -1 -1 -1 -1 -1 -0 0 1 1 0 1 1 1 1 0 1 -6 -0 4 2 4 3 3 2 2 2 1 1 2
3 -1 3 4 1 -3 -1 1 7 -1 1 -6 0 4 2 -3 -2 -1 -1 -2 -3 2 3 2 -0 1 2 0 1 3 4 0 -2 -0 1 2 2 2 1 0 0 0 0 0
Height
3039 3045 3049 3056 3061 3066 3068 3072 3075 3078 3079 3082 3078 3077 3078 3079 3079 3079 3078 3076 3075 3073 3071 3069 3068 3065 3064 3063 3061 3058 3055 3050 3043 3040 3036 3035 3033 3031 3029 3026 3020 3015 3007 2999
3024 3031 3035 3042 3047 3053 3059 3063 3066 3069 3070 3069 3071 3073 3074 3073 3074 3075 3073 3072 3071 3069 3068 3068 3063 3061 3062 3061 3059 3056 3053 3049 3043 3038 3038 3034 3032 3029 3028 3026 3022 3015 3010 2999
3011 3012 3023 3028 3035 3042 3050 3053 3056 3058 3059 3061 3065 3067 3068 3067 3069 3070 3069 3069 3068 3066 3063 3063 3059 3058 3058 3057 3056 3054 3051 3047 3045 3043 3038 3035 3029 3025 3025 3025 3021 3014 3007 2998
2995 2998 3005 3014 3021 3027 3036 3039 3041 3045 3048 3052 3057 3061 3061 3062 3063 3065 3065 3064 3064 3063 3060 3058 3056 3055 3054 3054 3051 3049 3048 3043 3042 3037 3033 3030 3025 3022 3020 3020 3017 3016 3005 3000
2981 2984 2992 2999 3006 3014 3020 3026 3031 3036 3042 3047 3048 3052 3053 3056 3059 3059 3061 3060 3061 3060 3057 3056 3053 3052 3051 3049 3048 3047 3045 3041 3038 3031 3028 3027 3022 3018 3014 3014 3013 3011 3007 3003
2969 2974 2979 2986 2992 2996 3000 3013 3021 3029 3035 3039 3041 3044 3049 3052 3053 3055 3056 3057 3057 3055 3054 3052 3050 3048 3046 3046 3044 3043 3042 3039 3038 3030 3028 3023 3020 3017 3012 3011 3011 3010 3008 3007
2958 2968 2972 2976 2982 2987 2996 3005 3016 3023 3027 3033 3035 3042 3044 3046 3049 3050 3051 3053 3052 3053 3050 3049 3046 3044 3042 3041 3040 3039 3038 3038 3038 3031 3028 3026 3019 3016 3011 3009 3008 3008 3008 3008
2951 2955 2962 2968 2975 2983 2990 3000 3010 3015 3019 3027 3031 3034 3039 3040 3044 3045 3047 3048 3049 3048 3046 3045 3042 3040 3040 3039 3038 3036 3036 3036 3036 3034 3029 3023 3017 3015 3012 3009 3009 3008 3008 3008
2946 2949 2955 2961 2968 2976 2984 2994 3002 3008 3015 3019 3027 3029 3033 3035 3039 3041 3042 3044 3044 3045 3042 3042 3040 3039 3038 3038 3037 3035 3034 3034 3036 3033 3032 3025 3019 3016 3012 3011 3012 3010 3009 3008
2940 2941 2948 2958 2961 2969 2979 2986 2995 3001 3008 3014 3019 3022 3027 3031 3034 3036 3038 3039 3040 3041 3040 3039 3038 3037 3038 3036 3035 3033 3032 3031 3030 3031 3031 3022 3019 3016 3014 3016 3019 3012 3011 3010
2936 2941 2944 2951 2953 2961 2970 2978 2987 2994 3001 3007 3012 3016 3021 3025 3028 3031 3034 3036 3035 3037 3036 3036 3034 3034 3035 3034 3033 3032 3031 3030 3027 3027 3027 3022 3019 3018 3018 3017 3015 3013 3012 3011
2934 2935 2937 2942 2950 2956 2964 2972 2980 2988 2996 3001 3006 3010 3016 3020 3023 3027 3028 3031 3031 3032 3033 3033 3032 3032 3032 3032 3031 3030 3029 3029 3027 3026 3021 3019 3018 3017 3017 3016 3015 3015 3014 3013
2926 2930 2936 2939 2945 2952 2960 2965 2974 2982 2989 2997 3001 3005 3010 3013 3018 3021 3024 3026 3028 3030 3030 3030 3030 3030 3029 3029 3028 3028 3027 3026 3023 3023 3019 3017 3016 3015 3015 3015 3015 3015 3014 3014
2928 2930 2933 2936 2942 2950 2956 2961 2968 2977 2984 2990 2995 2999 3002 3008 3011 3014 3018 3021 3023 3025 3026 3026 3026 3026 3026 3025 3025 3024 3024 3022 3020 3018 3017 3015 3014 3014 3015 3015 3015 3015 3015 3014
2927 2929 2932 2936 2942 2948 2954 2960 2964 2971 2982 2984 2988 2993 2997 3002 3005 3008 3012 3015 3017 3019 3021 3021 3022 3022 3023 3021 3020 3017 3019 3019 3018 3017 3016 3015 3015 3014 3014 3013 3013 3014 3014 3014
2922 2925 2928 2932 2937 2945 2951 2958 2961 2966 2973 2980 2983 2988 2992 2996 2999 3002 3006 3009 3011 3013 3015 3016 3016 3017 3020 3017 3015 3016 3016 3016 3015 3014 3012 3013 3013 3012 3012 3012 3013 3012 3012 3013
2916 2921 2924 2927 2934 2940 2947 2950 2955 2961 2969 2976 2981 2983 2985 2989 2993 2997 3000 3002 3004 3008 3009 3010 3011 3013 3013 3010 3009 3014 3012 3011 3010 3008 3007 3008 3009 3010 3010 3011 3011 3012 3012 3013
2915 2919 2921 2923 2927 2936 2942 2946 2953 2961 2967 2973 2977 2977 2982 2985 2988 2991 2995 2997 3000 3002 3003 3004 3006 3007 3006 3004 3007 3006 3006 3006 3005 3005 3003 3003 3004 3005 3007 3008 3009 3010 3010 3011
2912 2916 2918 2921 2923 2929 2936 2945 2949 2956 2964 2965 2966 2972 2979 2981 2983 2987 2990 2991 2994 2997 2997 3000 3002 2998 2998 3000 3001 3002 3000 2999 2999 2999 2999 2999 2999 3000 3003 3005 3006 3007 3008 3009
2910 2917 2918 2918 2922 2928 2934 2943 2949 2955 2955 2959 2963 2967 2972 2977 2979 2981 2986 2988 2991 2991 2993 2993 2992 2988 2995 2996 2995 2994 2994 2991 2990 2990 2992 2993 2995 2995 2997 3000 3001 3002 3004 3006
2909 2911 2913 2914 2917 2925 2931 2937 2943 2949 2952 2954 2959 2964 2969 2972 2976 2977 2981 2983 2985 2986 2986 2988 2984 2984 2988 2990 2989 2986 2985 2984 2983 2983 2984 2986 2989 2991 2993 2995 2997 2998 3000 3002
2906 2908 2907 2908 2915 2920 2924 2930 2937 2941 2945 2946 2951 2959 2964 2967 2971 2974 2978 2980 2981 2981 2981 2981 2978 2980 2981 2983 2982 2980 2979 2979 2979 2979 2978 2981 2983 2986 2988 2990 2991 2994 2996 2997
2905 2906 2907 2908 2911 2913 2917 2920 2926 2931 2934 2941 2947 2953 2958 2962 2968 2971 2975 2975 2977 2976 2975 2973 2973 2974 2975 2976 2977 2976 2976 2976 2976 2976 2976 2977 2979 2981 2983 2985 2987 2989 2991 2993
2900 2902 2903 2904 2906 2907 2909 2913 2920 2929 2936 2939 2943 2948 2953 2957 2962 2966 2969 2970 2971 2970 2969 2967 2967 2968 2969 2971 2972 2973 2973 2973 2974 2974 2974 2974 2975 2977 2979 2981 2984 2986 2988 2990
2897 2900 2900 2902 2903 2906 2909 2915 2923 2928 2933 2938 2942 2948 2953 2955 2959 2961 2963 2965 2964 2963 2962 2963 2964 2964 2965 2966 2968 2969 2970 2971 2971 2973 2973 2974 2975 2976 2978 2980 2982 2984 2986 2988
2898 2899 2899 2900 2902 2904 2911 2916 2920 2925 2930 2936 2942 2945 2948 2951 2954 2956 2957 2959 2958 2959 2959 2960 2961 2962 2963 2963 2965 2966 2966 2968 2971 2972 2973 2973 2974 2976 2977 2979 2981 2983 2985 2987
2900 2900 2900 2902 2905 2909 2913 2917 2920 2924 2930 2934 2939 2941 2942 2946 2949 2951 2953 2954 2956 2956 2958 2959 2960 2960 2960 2961 2961 2961 2962 2964 2967 2969 2972 2973 2974 2975 2977 2978 2980 2982 2984 2986